When you browse on this site, cookies collect data to enhance your experience and personalize the content and advertising you see.
Visit our Privacy Policy to learn more. By continuing to use the site, you agree to this use of cookies and data.
  • în România
  • Lista ţărilor
  • Pe 7 zile
  • Temperatura apei
  • Hartă satelitară
  • Meteo pe hartă
  • Widget-uri
  • user-avatar
    Intrare

    Meteo pe oră la Selyane

    Astăzi, 19 Februarie, Marţi

    Timp Temperatura Precipitaţii Vânt Presiune Umiditate
    00:00 -6°C° 0 mm 2 m/s 748 mmHg 88%
    01:00 -7°C° 0 mm 3 m/s 748 mmHg 86%
    02:00 -7°C° 0 mm 3 m/s 748 mmHg 85%
    03:00 -7°C° 0 mm 4 m/s 747 mmHg 82%
    04:00 -7°C° 0 mm 4 m/s 746 mmHg 80%
    05:00 -7°C° 0 mm 4 m/s 746 mmHg 77%
    06:00 -7°C° 0 mm 4 m/s 745 mmHg 78%
    07:00 -7°C° 0 mm 4 m/s 745 mmHg 78%
    08:00 -7°C° 0 mm 4 m/s 744 mmHg 78%
    09:00 -6°C° 0 mm 5 m/s 744 mmHg 78%
    10:00 -4°C° 0 mm 5 m/s 743 mmHg 78%
    11:00 -2°C° 0 mm 5 m/s 743 mmHg 78%
    12:00 -1°C° 0 mm 5 m/s 742 mmHg 79%
    13:00 -1°C° 0 mm 5 m/s 742 mmHg 80%
    14:00 0°C° 0 mm 5 m/s 741 mmHg 81%
    15:00 -1°C° 0 mm 5 m/s 740 mmHg 83%
    16:00 -1°C° 0 mm 5 m/s 740 mmHg 85%
    17:00 -1°C° 0 mm 4 m/s 739 mmHg 88%
    18:00 -1°C° 0 mm 5 m/s 738 mmHg 88%
    19:00 -1°C° 0 mm 5 m/s 738 mmHg 89%
    20:00 -2°C° 0 mm 6 m/s 737 mmHg 89%
    21:00 -1°C° 0 mm 5 m/s 736 mmHg 90%
    22:00 -1°C° 0 mm 5 m/s 736 mmHg 91%
    23:00 -1°C° 0 mm 5 m/s 735 mmHg 91%

    Mâine, 20 Februarie, Miercuri

    Timp Temperatura Precipitaţii Vânt Presiune Umiditate
    00:00 0°C° 0.1 mm 5 m/s 734 mmHg 91%
    01:00 0°C° 0.1 mm 4 m/s 734 mmHg 91%
    02:00 0°C° 0.1 mm 4 m/s 734 mmHg 91%
    03:00 0°C° 0.3 mm 4 m/s 733 mmHg 92%
    04:00 0°C° 0.3 mm 4 m/s 733 mmHg 92%
    05:00 0°C° 0.3 mm 4 m/s 733 mmHg 93%
    06:00 0°C° 0.1 mm 4 m/s 733 mmHg 93%
    07:00 0°C° 0.1 mm 4 m/s 733 mmHg 94%
    08:00 0°C° 0.1 mm 4 m/s 733 mmHg 94%
    09:00 0°C° 0.1 mm 4 m/s 733 mmHg 93%
    10:00 0°C° 0.1 mm 4 m/s 732 mmHg 92%
    11:00 0°C° 0.1 mm 4 m/s 732 mmHg 90%
    12:00 +1°C° 0.1 mm 4 m/s 732 mmHg 87%
    13:00 +1°C° 0.1 mm 4 m/s 732 mmHg 84%
    14:00 +1°C° 0.1 mm 5 m/s 732 mmHg 80%
    15:00 +1°C° 0.2 mm 5 m/s 731 mmHg 83%
    16:00 0°C° 0.2 mm 4 m/s 731 mmHg 85%
    17:00 0°C° 0.2 mm 4 m/s 731 mmHg 87%
    18:00 0°C° 0.5 mm 5 m/s 731 mmHg 85%
    19:00 -1°C° 0.5 mm 5 m/s 731 mmHg 83%
    20:00 -1°C° 0.5 mm 5 m/s 731 mmHg 81%
    21:00 -2°C° 0 mm 5 m/s 731 mmHg 83%
    22:00 -4°C° 0 mm 5 m/s 731 mmHg 84%
    23:00 -4°C° 0 mm 4 m/s 731 mmHg 86%

    Poimâine, 21 Februarie, Joi

    Timp Temperatura Precipitaţii Vânt Presiune Umiditate
    00:00 -5°C° 0.2 mm 5 m/s 732 mmHg 84%
    01:00 -5°C° 0.2 mm 6 m/s 733 mmHg 83%
    02:00 -5°C° 0.2 mm 6 m/s 733 mmHg 82%
    03:00 -5°C° 0.1 mm 6 m/s 734 mmHg 81%
    04:00 -6°C° 0.1 mm 6 m/s 734 mmHg 81%
    05:00 -6°C° 0.1 mm 6 m/s 734 mmHg 80%
    06:00 -6°C° 0.1 mm 6 m/s 735 mmHg 79%
    07:00 -6°C° 0.1 mm 6 m/s 735 mmHg 78%
    08:00 -6°C° 0.1 mm 6 m/s 736 mmHg 77%
    09:00 -6°C° 0.1 mm 6 m/s 737 mmHg 76%
    10:00 -8°C° 0.1 mm 6 m/s 737 mmHg 75%
    11:00 -8°C° 0.1 mm 6 m/s 738 mmHg 74%
    12:00 -8°C° 0.1 mm 6 m/s 739 mmHg 73%
    13:00 -8°C° 0.1 mm 6 m/s 739 mmHg 72%
    14:00 -8°C° 0.1 mm 6 m/s 740 mmHg 71%
    15:00 -8°C° 0 mm 6 m/s 741 mmHg 72%
    16:00 -9°C° 0 mm 6 m/s 741 mmHg 72%
    17:00 -10°C° 0 mm 6 m/s 742 mmHg 72%
    18:00 -10°C° 0 mm 6 m/s 743 mmHg 73%
    19:00 -11°C° 0 mm 5 m/s 744 mmHg 73%
    20:00 -11°C° 0 mm 5 m/s 745 mmHg 73%
    21:00 -12°C° 0 mm 5 m/s 746 mmHg 73%
    22:00 -12°C° 0 mm 5 m/s 747 mmHg 74%
    23:00 -11°C° 0 mm 4 m/s 747 mmHg 74%

    22 Februarie, Vineri

    Timp Temperatura Precipitaţii Vânt Presiune Umiditate
    00:00 -12°C° 0 mm 4 m/s 748 mmHg 74%
    01:00 -12°C° 0 mm 4 m/s 749 mmHg 75%
    02:00 -13°C° 0 mm 5 m/s 750 mmHg 75%
    03:00 -12°C° 0 mm 4 m/s 750 mmHg 75%
    04:00 -14°C° 0 mm 4 m/s 751 mmHg 76%
    05:00 -14°C° 0 mm 4 m/s 752 mmHg 76%
    06:00 -14°C° 0 mm 4 m/s 752 mmHg 78%
    07:00 -12°C° 0 mm 4 m/s 753 mmHg 80%
    08:00 -12°C° 0 mm 4 m/s 753 mmHg 82%
    09:00 -11°C° 0 mm 4 m/s 754 mmHg 78%
    10:00 -12°C° 0 mm 5 m/s 754 mmHg 74%
    11:00 -11°C° 0 mm 5 m/s 754 mmHg 70%
    12:00 -10°C° 0 mm 5 m/s 755 mmHg 70%
    13:00 -10°C° 0 mm 5 m/s 755 mmHg 69%
    14:00 -10°C° 0 mm 5 m/s 755 mmHg 69%
    15:00 -10°C° 0 mm 5 m/s 756 mmHg 71%
    16:00 -10°C° 0 mm 5 m/s 756 mmHg 73%
    17:00 -10°C° 0 mm 4 m/s 756 mmHg 75%
    18:00 -10°C° 0 mm 4 m/s 757 mmHg 77%
    19:00 -10°C° 0 mm 4 m/s 757 mmHg 79%
    20:00 -10°C° 0 mm 4 m/s 758 mmHg 81%
    21:00 -10°C° 0 mm 3 m/s 758 mmHg 83%
    22:00 -10°C° 0 mm 3 m/s 759 mmHg 85%
    23:00 -9°C° 0 mm 2 m/s 759 mmHg 88%

    23 Februarie, Sâmbătă

    Timp Temperatura Precipitaţii Vânt Presiune Umiditate
    00:00 -10°C° 0 mm 2 m/s 759 mmHg 90%
    01:00 -10°C° 0 mm 2 m/s 759 mmHg 92%
    02:00 -10°C° 0 mm 1 m/s 759 mmHg 95%
    03:00 -10°C° 0 mm 1 m/s 758 mmHg 95%
    04:00 -10°C° 0 mm 1 m/s 758 mmHg 96%
    05:00 -10°C° 0 mm 1 m/s 758 mmHg 97%
    06:00 -10°C° 0 mm 1 m/s 757 mmHg 95%
    07:00 -9°C° 0 mm 1 m/s 757 mmHg 93%
    08:00 -9°C° 0 mm 1 m/s 757 mmHg 91%
    09:00 -8°C° 0 mm 1 m/s 756 mmHg 88%
    10:00 -8°C° 0 mm 2 m/s 756 mmHg 84%
    11:00 -7°C° 0 mm 2 m/s 755 mmHg 81%
    12:00 -7°C° 0.1 mm 2 m/s 755 mmHg 81%
    13:00 -6°C° 0.1 mm 2 m/s 754 mmHg 82%
    14:00 -7°C° 0.1 mm 3 m/s 754 mmHg 82%
    15:00 -7°C° 0.3 mm 3 m/s 753 mmHg 85%
    16:00 -7°C° 0.3 mm 3 m/s 753 mmHg 88%
    17:00 -7°C° 0.3 mm 3 m/s 753 mmHg 91%
    18:00 -7°C° 0.1 mm 3 m/s 753 mmHg 91%
    19:00 -6°C° 0.1 mm 2 m/s 753 mmHg 92%
    20:00 -6°C° 0.1 mm 2 m/s 753 mmHg 92%
    21:00 -6°C° 0.1 mm 2 m/s 753 mmHg 93%
    22:00 -6°C° 0.1 mm 2 m/s 753 mmHg 93%
    23:00 -6°C° 0.1 mm 2 m/s 753 mmHg 94%

    24 Februarie, Duminică

    Timp Temperatura Precipitaţii Vânt Presiune Umiditate
    00:00 -5°C° 0.1 mm 2 m/s 752 mmHg 94%
    01:00 -5°C° 0.1 mm 2 m/s 752 mmHg 95%
    02:00 -5°C° 0.1 mm 2 m/s 752 mmHg 95%
    03:00 -5°C° 0.1 mm 2 m/s 752 mmHg 95%
    04:00 -5°C° 0.1 mm 2 m/s 752 mmHg 96%
    05:00 -4°C° 0.1 mm 2 m/s 752 mmHg 96%
    06:00 -4°C° 0 mm 2 m/s 751 mmHg 96%
    07:00 -3°C° 0 mm 2 m/s 751 mmHg 97%
    08:00 -3°C° 0 mm 2 m/s 751 mmHg 97%
    09:00 -2°C° 0 mm 2 m/s 751 mmHg 96%
    10:00 -1°C° 0 mm 3 m/s 750 mmHg 95%
    11:00 0°C° 0 mm 3 m/s 750 mmHg 94%
    12:00 0°C° 0.1 mm 3 m/s 749 mmHg 94%
    13:00 0°C° 0.1 mm 3 m/s 748 mmHg 95%
    14:00 +1°C° 0.1 mm 3 m/s 748 mmHg 95%
    15:00 -1°C° 0.1 mm 4 m/s 747 mmHg 95%
    16:00 -1°C° 0.1 mm 4 m/s 746 mmHg 95%
    17:00 -1°C° 0.1 mm 4 m/s 745 mmHg 96%
    18:00 -1°C° 0.1 mm 4 m/s 744 mmHg 96%
    19:00 -1°C° 0.1 mm 4 m/s 744 mmHg 95%
    20:00 -1°C° 0.1 mm 5 m/s 743 mmHg 95%
    21:00 -1°C° 0.1 mm 4 m/s 742 mmHg 95%
    22:00 -1°C° 0.1 mm 4 m/s 742 mmHg 94%
    23:00 -1°C° 0.1 mm 4 m/s 741 mmHg 94%
    Arată mai mult